www.pogodaiklimat.ru

Погода и климат >> Архив погоды >> Великобритания >> Залив Лангдон


ПОГОДА в Заливе Лангдон

  • Прогноз погоды в Заливе Лангдон
  • Монитор погоды в Заливе Лангдон

АРХИВ ПОГОДЫ в Заливе Лангдон

Время (UTC), дата Ветер
(напр.,м/с)
 
Видим.   Явления Облачность Т
(С)
Тd
(С)
f
(%)
Тe
(С)
Тes
(С)
Комфортность P
(гПа)
Po
(гПа)
Тmin
(С)
Tmax
(С)
R
(мм)
R24
(мм)
S
(см)
19 18.06 СВ 8 н/о н/о +15.3 +10.7 74 +13 +13 1011.1 997.2
20 18.06 СВ 9 н/о н/о +14.7 +10.5 76 +12 +12 1010.6 996.7
21 18.06 СВ 8 н/о н/о +14.4 +11.0 80 +12 +12 1010.3 996.4
22 18.06 С 9 н/о н/о +14.5 +12.1 86 +12 +12 1009.1 995.2
23 18.06 СВ 7 н/о н/о +14.9 +13.1 89 +13 +13 1008.9 995.0
00 19.06 СЗ 6
{15}
н/о н/о +14.0 +13.3 96 +12 +12 1008.7 994.7
01 19.06 ЮВ 4 н/о н/о +14.5 +13.8 96 +13 +13 1009.5 995.6
02 19.06 СВ 2 н/о н/о +14.2 +13.7 97 +14 +14 1007.9 994.0
03 19.06 СВ 3 н/о н/о +14.2 +13.6 96 +13 +13 1006.3 992.4
04 19.06 В 3 н/о н/о +14.1 +13.5 96 +13 +13 1006.6 992.7
05 19.06 С 3 н/о н/о +14.4 +13.7 96 +13 +13 1005.3 991.4
06 19.06 СЗ 2 н/о н/о +14.9 +14.6 98 +14 +14 1006.3 992.4 +13.7
07 19.06 ЮЗ 4 н/о н/о +14.7 +14.1 96 +14 +14 1007.4 993.5
08 19.06 Ю 1 н/о н/о +14.8 +14.5 98 +15 +15 1007.1 993.2
09 19.06 ЮЗ 4 н/о н/о +17.4 +15.4 88 +17 +17 1007.2 993.4
10 19.06 З 2 н/о н/о +18.2 +14.7 80 +19 +19 1006.8 993.1
11 19.06 Ю 2 н/о н/о +17.4 +13.9 80 +18 +18 1007.4 993.6
12 19.06 ЮЗ 3 н/о н/о +17.8 +15.3 85 +18 +18 1007.5 993.8
13 19.06 ЮЗ 3 н/о н/о +17.9 +14.7 82 +18 +18 1007.6 993.8
14 19.06 ЮЗ 5 н/о н/о +17.2 +14.6 85 +17 +17 1007.5 993.7
15 19.06 ЮЗ 7 н/о н/о +16.8 +14.7 87 +16 +16 1007.7 993.9
16 19.06 ЮЗ 5 н/о н/о +17.3 +15.1 87 +17 +17 1007.3 993.6
17 19.06 З 4 н/о н/о +18.2 +15.9 86 +18 +18 1007.3 993.6
18 19.06 З 3 н/о н/о +16.5 +15.1 91 +16 +16 1007.8 994.0 +19.7
19 19.06 ЮЗ 3 н/о н/о +17.6 +15.7 89 +18 +18 1008.1 994.3
20 19.06 З 4 н/о н/о +17.1 +15.8 92 +17 +17 1008.5 994.7
21 19.06 З 4 н/о н/о +16.1 +13.8 86 +15 +15 1009.3 995.4
22 19.06 З 4 н/о н/о +15.5 +13.5 88 +14 +14 1009.4 995.5
23 19.06 З 4 н/о н/о +14.5 +13.1 91 +13 +13 1009.6 995.7
00 20.06 ЮЗ 6 н/о н/о +14.3 +14.0 98 +12 +12 1009.6 995.7
01 20.06 З 5 н/о н/о +14.0 +13.8 99 +12 +12 1009.5 995.6
02 20.06 З 4 н/о н/о +14.2 +14.0 99 +13 +13 1009.5 995.6
03 20.06 З 4 н/о н/о +14.3 +13.8 97 +13 +13 1009.6 995.7
04 20.06 З 3 н/о н/о +14.1 +13.8 98 +13 +13 1010.0 996.1
05 20.06 З 4 н/о н/о +14.1 +13.7 97 +13 +13 1010.2 996.3
06 20.06 З 3 н/о н/о +14.5 +14.1 97 +13 +13 1010.7 996.8 +13.9
07 20.06 З 3 н/о н/о +14.8 +13.7 93 +14 +14 1011.1 997.2
08 20.06 З 4 н/о н/о +15.7 +13.3 86 +15 +15 1011.6 997.7
09 20.06 З 4 н/о н/о +16.7 +13.1 79 +16 +16 1012.0 998.2
10 20.06 З 5 н/о н/о +16.7 +11.1 70 +16 +16 1012.4 998.5
11 20.06 ЮЗ 5 н/о н/о +17.2 +12.4 73 +17 +17 1012.8 999.0
12 20.06 ЮЗ 6 н/о н/о +16.3 +12.5 78 +15 +15 1013.3 999.4
13 20.06 ЮЗ 6 н/о н/о +16.3 +12.7 79 +15 +15 1013.4 999.6
14 20.06 ЮЗ 7 н/о н/о +14.6 +12.3 86 +13 +13 1013.7 999.7
15 20.06 ЮЗ 7 н/о н/о +15.0 +11.6 80 +13 +13 1013.8 999.9
16 20.06 ЮЗ 6 н/о н/о +15.1 +12.5 84 +13 +13 1014.1 1000.1
17 20.06 ЮЗ 7 н/о н/о +14.3 +12.1 87 +12 +12 1014.4 1000.4
18 20.06 З 7 н/о н/о +15.0 +12.6 86 +13 +13 1014.7 1000.7 +18.0
19 20.06 З 5 н/о н/о +14.7 +11.9 83 +13 +13 1014.9 1000.9
20 20.06 З 4 н/о н/о +13.8 +11.2 84 +12 +12 1015.3 1001.3
21 20.06 З 5 н/о н/о +13.3 +11.1 87 +11 +11 1015.8 1001.7
22 20.06 З 4 н/о н/о +13.1 +11.4 89 +11 +11 1016.0 1002.0
23 20.06 З 5 н/о н/о +12.1 +11.2 94 +10 +10 1016.3 1002.2
00 21.06 З 4 н/о н/о +11.5 +11.2 98 +9 +9 1016.6 1002.4
01 21.06 З 4 н/о н/о +11.4 +11.0 97 +9 +9 1016.8 1002.7
02 21.06 З 4 н/о н/о +11.0 +10.5 97 +9 +9 1017.2 1003.0
03 21.06 З 5 н/о н/о +10.7 +10.2 97 +8 +8 1017.2 1003.0
04 21.06 З 6 н/о н/о +10.5 +9.4 93 +7 +7 1017.4 1003.2
05 21.06 СЗ 6 н/о н/о +10.7 +8.6 87 +8 +8 1017.8 1003.6
06 21.06 З 5 н/о н/о +12.0 +8.2 78 +10 +10 1018.4 1004.2 +10.4
07 21.06 З 5 н/о н/о +13.8 +8.9 72 +12 +12 1018.8 1004.7
08 21.06 З 3 н/о н/о +15.1 +9.7 70 +14 +14 1019.2 1005.2
09 21.06 ЮЗ 5 н/о н/о +14.6 +9.5 71 +13 +13 1019.5 1005.4
10 21.06 Ю 5 н/о н/о +15.5 +10.6 73 +14 +14 1019.8 1005.8
11 21.06 ЮЗ 4 н/о н/о +16.1 +11.0 72 +15 +15 1020.0 1006.0
12 21.06 ЮЗ 5 н/о н/о +15.7 +11.5 76 +15 +15 1020.3 1006.3
13 21.06 ЮЗ 5 н/о н/о +15.3 +9.9 70 +14 +14 1020.6 1006.5
14 21.06 ЮЗ 5 н/о н/о +16.3 +10.3 68 +15 +15 1020.6 1006.6
15 21.06 ЮЗ 5 н/о н/о +14.7 +11.8 83 +13 +13 1020.7 1006.6
16 21.06 ЮЗ 5 н/о н/о +15.3 +12.7 84 +14 +14 1021.0 1007.0
17 21.06 ЮЗ 5 н/о н/о +14.5 +12.2 86 +13 +13 1021.2 1007.2
18 21.06 ЮЗ 4 н/о н/о +15.0 +12.6 86 +14 +14 1021.4 1007.3 +17.1
19 21.06 ЮЗ 3 н/о н/о +13.9 +12.6 92 +13 +13 1021.6 1007.5
20 21.06 ЮЗ 3 н/о н/о +13.5 +12.5 94 +12 +12 1022.0 1007.8
21 21.06 ЮЗ 3 н/о н/о +13.1 +12.6 97 +12 +12 1022.3 1008.1
22 21.06 ЮЗ 2 н/о н/о +12.6 +12.3 98 +12 +12 1022.5 1008.3
23 21.06 ЮЗ 3 н/о н/о +12.5 +12.4 99 +11 +11 1022.6 1008.4
00 22.06 З 2 н/о н/о +12.2 +12.0 99 +11 +11 1022.6 1008.4
01 22.06 З 1 н/о н/о +11.8 +11.7 99 +12 +12 1022.4 1008.2
02 22.06 ЮВ 2 н/о н/о +12.9 +12.9 100 +12 +12 1022.5 1008.3
03 22.06 ЮВ 3 н/о н/о +12.7 +12.7 100 +11 +11 1022.6 1008.4
04 22.06 ЮВ 2 н/о н/о +12.3 +12.3 100 +11 +11 1022.7 1008.5
05 22.06 ЮВ 3 н/о н/о +12.5 +12.5 100 +11 +11 1022.9 1008.7
06 22.06 ЮВ 3 н/о н/о +13.5 +12.5 94 +12 +12 1022.8 1008.7 +11.7
07 22.06 ЮВ 2 н/о н/о +14.9 +11.6 81 +15 +15 1022.7 1008.7
08 22.06 ЮВ 3 н/о н/о +15.8 +11.2 74 +15 +15 1022.5 1008.5
09 22.06 В 3 н/о н/о +16.8 +11.6 71 +17 +17 1022.6 1008.6
10 22.06 В 4 н/о н/о +18.1 +10.5 61 +18 +18 1022.5 1008.6
11 22.06 В 4 н/о н/о +18.9 +10.5 58 +20 +20 1022.4 1008.5
12 22.06 В 6 н/о н/о +18.6 +11.7 64 +19 +19 1022.2 1008.3
13 22.06 СВ 6 н/о н/о +19.0 +11.3 61 +19 +19 1021.9 1008.0
14 22.06 СВ 6 н/о н/о +19.1 +10.7 58 +20 +20 1021.4 1007.5
15 22.06 СВ 8 н/о н/о +18.3 +8.9 54 +18 +18 1021.1 1007.2
16 22.06 СВ 7 н/о н/о +18.0 +9.9 59 +17 +17 1020.6 1006.7
17 22.06 СВ 7 н/о н/о +17.3 +10.1 63 +16 +16 1020.3 1006.4
18 22.06 СВ 6 н/о н/о +16.3 +11.1 71 +15 +15 1020.3 1006.3 +19.4
19 22.06 СВ 7 н/о н/о +14.6 +11.4 81 +13 +13 1020.2 1006.2
20 22.06 СВ 6 н/о н/о +13.3 +11.5 89 +11 +11 1020.4 1006.3
21 22.06 СВ 5 н/о н/о +12.7 +11.4 92 +10 +10 1020.8 1006.6
22 22.06 СВ 6 н/о н/о +13.1 +11.9 92 +11 +11 1020.5 1006.3
23 22.06 СВ 6 н/о н/о +13.2 +12.1 93 +11 +11 1020.0 1005.9
00 23.06 СВ 7 н/о н/о +13.7 +12.8 94 +11 +11 1019.5 1005.4
01 23.06 СВ 6 н/о н/о +13.3 +12.6 96 +11 +11 1019.6 1005.5
02 23.06 СВ 6 н/о н/о +13.7 +13.3 97 +11 +11 1019.2 1005.1
03 23.06 СВ 7 н/о н/о +13.7 +13.2 97 +11 +11 1018.7 1004.6
04 23.06 СВ 7 н/о н/о +14.4 +14.0 97 +12 +12 1018.5 1004.4
05 23.06 СВ 5 н/о н/о +14.8 +14.5 98 +13 +13 1018.3 1004.3
06 23.06 СВ 5 н/о н/о +16.6 +15.7 94 +16 +16 1018.0 1004.0 +12.7
07 23.06 СВ 5 н/о н/о +17.4 +15.2 87 +17 +17 1018.0 1004.1
08 23.06 СВ 4 н/о н/о +17.8 +15.3 85 +18 +18 1018.0 1004.1
09 23.06 С 6 н/о н/о +19.2 +15.5 79 +20 +20 1017.6 1003.8
10 23.06 С 6 н/о н/о +19.9 +15.7 77 +22 +22 комфорт 1017.5 1003.7
11 23.06 СВ 7 н/о н/о +21.6 +16.3 72 +25 +25 комфорт 1017.3 1003.6
12 23.06 СВ 8 н/о н/о +21.6 +16.1 71 +25 +25 комфорт 1016.9 1003.3
13 23.06 СВ 8 н/о н/о +20.9 +15.3 70 +24 +24 комфорт 1016.4 1002.7
14 23.06 СВ 10
{13}
н/о н/о +19.8 +14.6 72 +21 +21 комфорт 1016.2 1002.5
15 23.06 СВ 11
{14}
н/о н/о +18.1 +14.2 78 +17 +17 1015.1 1001.3
16 23.06 СВ 9 н/о н/о +20.5 +15.5 73 +23 +23 комфорт 1015.2 1001.5
17 23.06 СВ 9
{13}
н/о н/о +18.7 +14.5 77 +19 +19 1014.8 1001.0
18 23.06 СВ 9 н/о н/о +18.4 +14.7 79 +18 +18 1014.6 1000.8 +22.2
19 23.06 В 8 н/о н/о +19.3 +15.2 77 +20 +20 1014.8 1001.1
20 23.06 В 8 н/о н/о +20.5 +15.8 74 +23 +23 комфорт 1014.8 1001.1
21 23.06 В 5 н/о н/о +20.1 +16.0 77 +23 +23 комфорт 1015.2 1001.4
22 23.06 СВ 3 н/о н/о +18.5 +16.0 85 +20 +20 1015.4 1001.5
23 23.06 ЮВ 5 н/о н/о +20.7 +17.2 80 +24 +24 комфорт 1015.1 1001.4
00 24.06 ЮВ 5 н/о н/о +21.1 +17.1 78 +25 +25 комфорт 1015.0 1001.3
01 24.06 ЮВ 4 н/о н/о +20.4 +16.9 80 +24 +24 комфорт 1014.8 1001.1
02 24.06 В 4 н/о н/о +20.0 +16.9 82 +23 +23 комфорт 1014.5 1000.8
03 24.06 ЮВ 4 н/о н/о +20.3 +16.8 80 +23 +23 комфорт 1014.4 1000.7
04 24.06 ЮВ 3 н/о н/о +20.5 +16.7 79 +24 +24 комфорт 1014.3 1000.6
05 24.06 Ю 2 н/о н/о +20.3 +16.6 79 +24 +24 комфорт 1014.8 1001.1
06 24.06 ЮВ 2 н/о н/о +21.3 +16.8 76 +25 +25 комфорт 1014.4 1000.7 +18.4
07 24.06 Ю 2 н/о н/о +21.2 +16.7 75 +25 +25 комфорт 1014.9 1001.2
08 24.06 Ю 4 н/о н/о +20.7 +16.4 76 +24 +24 комфорт 1015.4 1001.7
09 24.06 ЮЗ 5 н/о н/о +18.6 +16.0 85 +19 +19 1016.0 1002.2
10 24.06 ЮЗ 4 н/о н/о +16.9 +15.3 90 +16 +16 1016.0 1002.1
11 24.06 ЮЗ 5 н/о н/о +16.3 +14.8 91 +15 +15 1017.0 1003.1
12 24.06 ЮЗ 5 н/о н/о +15.8 +15.4 97 +15 +15 1017.7 1003.8
13 24.06 ЮЗ 6 н/о н/о +15.8 +15.2 96 +14 +14 1018.1 1004.2
14 24.06 ЮЗ 2 н/о н/о +16.7 +15.2 91 +17 +17 1017.9 1004.0
15 24.06 З 3 н/о н/о +15.7 +15.2 97 +15 +15 1017.6 1003.7
16 24.06 ЮЗ 2 н/о н/о +18.2 +15.2 83 +19 +19 1017.3 1003.5
17 24.06 ЮЗ 3 н/о н/о +16.2 +14.8 91 +16 +16 1017.7 1003.8
18 24.06 З 3 н/о н/о +16.0 +15.3 96 +15 +15 1017.5 1003.6 +22.0
19 24.06 З 4 н/о н/о +17.0 +15.6 91 +17 +17 1018.2 1004.3
20 24.06 СЗ 5 н/о н/о +18.3 +15.1 82 +18 +18 1018.0 1004.1
21 24.06 С 5 н/о н/о +19.2 +15.4 79 +21 +21 комфорт 1017.8 1004.0
22 24.06 С 4 н/о н/о +18.1 +15.5 85 +18 +18 1017.8 1003.9
23 24.06 С 7 н/о н/о +18.2 +15.9 86 +18 +18 1017.2 1003.3
00 25.06 С 7 н/о н/о +18.0 +16.2 89 +17 +17 1017.0 1003.2
01 25.06 СЗ 7 н/о н/о +18.2 +16.5 90 +18 +18 1016.7 1002.9
02 25.06 С 8 н/о н/о +18.3 +17.4 94 +18 +18 1016.0 1002.2
03 25.06 С 8 н/о н/о +18.0 +17.5 97 +17 +17 1015.6 1001.8
04 25.06 Ю 2 н/о н/о +17.1 +16.8 98 +17 +17 1017.6 1003.7
05 25.06 С 9 н/о н/о +17.4 +17.3 99 +16 +16 1015.8 1001.9
06 25.06 С 10
{13}
н/о н/о +17.8 +17.6 99 +17 +17 1015.3 1001.4 +16.1
07 25.06 С 11
{14}
н/о н/о +18.2 +17.6 96 +17 +17 1014.8 1001.0
08 25.06 С 12
{15}
н/о н/о +20.2 +17.8 86 +23 +23 комфорт 1015.2 1001.5
09 25.06 С 10
{15}
н/о н/о +21.6 +18.0 80 +26 +26 душно 1015.2 1001.5
10 25.06 С 8
{14}
н/о н/о +22.3 +18.0 77 +27 +27 душно 1015.8 1002.1
11 25.06 С 7 н/о н/о +21.8 +18.2 80 +27 +27 душно 1016.7 1003.0
12 25.06 С 6 н/о н/о +22.3 +18.6 80 +28 +28 душно 1016.9 1003.3
13 25.06 С 3 н/о н/о +22.2 +18.4 79 +27 +27 душно 1017.3 1003.7
14 25.06 СЗ 4 н/о н/о +23.1 +18.7 76 +29 +29 очень
душно
1017.7 1004.1
15 25.06 СЗ 4 н/о н/о +23.5 +18.9 75 +28 +28 душно 1018.4 1004.7
16 25.06 С 7 н/о н/о +23.2 +18.3 74 +29 +29 душно 1018.8 1005.2
17 25.06 С 6 н/о н/о +21.6 +18.0 80 +26 +26 душно 1019.5 1005.7

 

Местоположение метеостанции Залив Лангдон (Великобритания): широта 51.13 долгота 1.35 высота над уровнем моря 117 м.

В архиве по умолчанию представлена погода в Заливе Лангдон за последнюю неделю. Архивные данные за месяц целиком и за предыдущие месяцы, начиная с января 2011 года, Вы можете получить, выбрав интересующий диапазон дат из раскрывающегося списка и нажав кнопку "Ввод!".


*Определитесь, кто Вы:
робот инопланетянин человек

Внимание! Время в таблицах - всемирное. Для получения местного времени необходимо прибавить поправку, которая равна 0 ч.

Смотрите также архив погоды в соседних городах и на ближайших метеорологических станциях:

Погода в Кент (Великобритания) (25 км)
Погода в Булонь-сюр-Мере (Франция) (48 км)
Погода в Шоберинессе (Великобритания) (59 км)
Погода в Дюнкерке (Франция) (69 км)
Погода в Ле-Туке-Пари-Плаже (Франция) (70 км)
Погода в Херстмонсо (Великобритания) (76 км)
Погода в Грейвзенде (Великобритания) (82 км)
Погода в Коксейде (Бельгия) (91 км)
Погода в Ротамстеде (Великобритания) (101 км)
Погода на Аэродроме Кенли (Великобритания) (101 км)

Пояснения к столбцам:

Ветер - указаны скорость ветра в м/с - средняя за 10 мин, порывы в срок и между сроками (в фигурных скобках) и направление, откуда дует ветер: С - северный, СВ - северо-восточный, В - восточный, ЮВ - юго-восточный, Ю - южный, ЮЗ - юго-западный, З - западный, СЗ - северо-западный.
Видимость - горизонтальная дальность видимости в метрах или километрах. При видимости от 1 до 10 км при отсутствии осадков обычно наблюдается дымка, при ухудшении видимости до 1 км и менее - туман. В сухую погоду видимость может ухудшаться дымом, пылью или мглою.
Явления - указаны атмосферные явления, наблюдавшиеся в срок или в последний час перед сроком; фигурными скобками обозначены явления, наблюдавшиеся между сроками (за 1-3 часа до срока); квадратными скобками обозначены град или гололедные отложения с указанием их диаметра в мм.
Облачность - указаны через наклонную черту общая и нижняя облачность в баллах и высота нижней границы облаков в метрах; квадратными скобками обозначены формы облаков: Ci - перистые, Cs - перисто-слоистые, Cc - перисто-кучевые, Ac - высококучевые, As - высокослоистые, Sc - слоисто-кучевые, Ns - слоисто-дождевые, Cu - кучевые, Cb - кучево-дождевые. Подробнее классификацию облаков см. в Атласе облаков (PDF).
T - Температура воздуха - температура, измеренная на высоте 2 м над землей.
Td - Температура точки росы - температура, при понижении до которой содержащийся в воздухе водяной пар достигнет насыщения.
f - Относительная влажность воздуха - влажноcть воздуха, измеренная на высоте 2 м над землей.
Te - Эффективная температура - температура, которую ощущает одетый по сезону человек в тени. Характеристика душности погоды. При расчете учитывается влияние влажности воздуха и скорости ветра на теплоощущения человека.
Tes - Эффективная температура на солнце - температура, которую ощущает человек, с поправкой на солнечный нагрев. Характеристика знойности погоды. Зависит от высоты солнца над горизонтом, облачности и скорости ветра. Ночью, в пасмурную погоду, а также при ветре 12 м/с и более поправка равна нулю.
P - Атмосферное давление - приведенное к уровню моря атмосферное давление.
Po - Атмосферное давление - измеренное на уровне метеостанции атмосферное давление.
Tmin - Минимальная температура - минимум температуры воздуха на высоте 2 м над землей.
Tmax - Максимальная температура - максимум температуры воздуха на высоте 2 м над землей.
R - Количество осадков - Количество выпавших осадков за период времени, мм. При наведении курсора мыши на число - период времени, за который выпало указанное количество осадков.
R24 - Количество осадков - Количество выпавших осадков за 24 часа, мм.
S - Снежный покров - Высота снежного покрова, см. При наведении курсора мыши на число - состояние снежного покрова и степень покрытия местности в баллах.